Skip Page Navigation
NASA JPL Caltech
NASA Logo - Jet Propulsion Laboratory + View the NASA Portal
+ Center for Near-Earth Object Studies
JPL Home Earth Solar System Stars & Galaxies Technology
JPL Solar System Dynamics
BODIES ORBITS EPHEMERIDES TOOLS PHYSICAL DATA DISCOVERY FAQ SITE MAP
JPL Small-Body Database Browser
Search: [ help ]  
1127 Mimi (1929 AJ)
Classification: Main-belt Asteroid          SPK-ID: 2001127
Ephemeris | Orbit Diagram | Orbital Elements | Mission Design | Physical Parameters | Discovery Circumstances | Close-Approach Data ]

[ hide orbit diagram ]
Orbit Diagram
[ switch to new HTML5 viewer ]

Note: This Java-based orbit viewer will eventually be retired.

Note: Make sure you have Java enabled on your browser to see the applet. This applet is provided as a 3D orbit visualization tool. The applet was implemented using two-body methods, and hence should not be used for determining accurate long-term trajectories (over several years or decades) or planetary encounter circumstances. For accurate long-term ephemerides, please instead use our Horizons system.

Note: If the applet is not working, here are some notes that might help.
Orbit Viewer

Additional Notes: the orbits shown in the applet are color coded. The planets are white lines, and the asteroid/comet is a blue line. The bright white line indicates the portion of the orbit that is above the ecliptic plane, and the darker portion is below the ecliptic plane. Likewise for the asteroid/comet orbit, the light blue indicates the portion above the ecliptic plane, and the dark blue the portion below the ecliptic plane.

Orbit Viewer applet originally written and kindly provided by Osamu Ajiki (AstroArts), and further modified by Ron Baalke (JPL).


Orbital Elements at Epoch 2459000.5 (2020-May-31.0) TDB
Reference: JPL 41 (heliocentric ecliptic J2000)
 Element Value Uncertainty (1-sigma)   Units 
e .2647003578957269 3.5774e-08  
a 2.593931495053815 9.8659e-09 au
q 1.907316899956072 9.6137e-08 au
i 14.76715991144359 4.0182e-06 deg
node 128.3509672242576 1.4894e-05 deg
peri 282.7277160900715 1.7124e-05 deg
M 357.2714430930088 1.1945e-05 deg
tp 2459012.065560784987
(2020-Jun-11.56556079)
5.0673e-05 TDB
period 1525.935512624617
4.18
8.7058e-06
2.384e-08
d
yr
n .2359208479136828 1.346e-09 deg/d
Q 3.280546090151558 1.2477e-08 au
  Orbit Determination Parameters
   # obs. used (total)      2673  
   data-arc span      32729 days (89.61 yr)  
   first obs. used      1930-05-29  
   last obs. used      2020-01-06  
   planetary ephem.      DE431  
   SB-pert. ephem.      SB431-N16  
   condition code      0  
   norm. resid. RMS      .37401  
   source      ORB  
   producer      Otto Matic  
   solution date      2020-Jan-28 17:51:46  

Additional Information
 Earth MOID = .980229 au 
 Jupiter MOID = 2.27581 au 
 T_jup = 3.323 
[ show covariance matrix ]

Ephemeris | Orbit Diagram | Orbital Elements | Mission Design | Physical Parameters | Discovery Circumstances | Close-Approach Data ]

Physical Parameter Table
Parameter Symbol Value Units Sigma Reference Notes
absolute magnitude H 10.6   n/a MPO492763 IRAS observations used: 26
diameter diameter 46.006 km 0.305 urn:nasa:pds:neowise_diameters_albedos::2.0[mainbelt] (http://adsabs.harvard.edu/abs/2014ApJ...791..121M)  
rotation period rot_per 12.749 h n/a LCDB (Rev. 2019-August); Warner et al., 2009 Published Reference List:
[Menke, J. (2005) Minor Planet Bull. 32, 64-66.]
[Durech, J.; Hanus, J.; Oszkiewsicz, D.; Vanco, R. (2016) Astron. Astrophys. 587, A48.]
[Hanus, J.; Delbo, M.; Durech, J.; Ali-Lagoa, V. (2018) Icarus 309, 297-337.]
geometric albedo albedo 0.034   0.005 urn:nasa:pds:neowise_diameters_albedos::2.0[mainbelt] (http://adsabs.harvard.edu/abs/2014ApJ...791..121M)  
B-V BV 0.700   0.042 EAR-A-5-DDR-UBV-MEAN-VALUES-V1.2 #obs=2; phase (min.=11.07, mean=11.07, max.=11.08) deg.
U-B UB 0.300   0.045 EAR-A-5-DDR-UBV-MEAN-VALUES-V1.2 #obs=2; phase (min.=11.07, mean=11.07, max.=11.08) deg.
Tholen spectral type spec_T CX   n/a EAR-A-5-DDR-TAXONOMY-V4.0 used 2 color indices

1127 Mimi (1929 AJ)          Discovered 1929-Jan-13 by Arend, S. at Uccle
Reference: DISCOVERY.DBLast Updated: 2003-08-29

[ show close-approach data ]
Alternate Designations
 1929 AJ = 1948 PU = 2019 HA5 = A906 OA 
Ephemeris | Orbit Diagram | Orbital Elements | Mission Design | Physical Parameters | Discovery Circumstances | Close-Approach Data ]
ABOUT SSD CREDITS/AWARDS PRIVACY/COPYRIGHT GLOSSARY LINKS
FirstGov 2020-Oct-28 20:20 UT
(server date/time)  
NASA Home Page
Site Manager:   Ryan S. Park
Webmaster  Alan B. Chamberlin